Temp_Advection
nan nan nan nan nan nan nan nan nan nan nan nan nan nan nan nan nan nan nan nan nan nan nan nan nan nan nan nan nan nan nan nan nan nan nan nan nan nan nan nan nan nan nan nan nan nan nan nan nan
nan -0 0 -0 -0 0 -0 -0 -0 -0 0 -0 0 -0 -0 -0 0 0 1 1 0 -0 -0 -0 -0 -0 -0 0 -0 -0 -0 -0 -0 0 -0 -0 0 0 0 -0 -0 -0 -0 -0 -0 -0 -0 -0 nan
nan -0 -0 -0 0 0 0 -0 -0 0 0 -0 -0 -0 -0 -0 0 0 -0 0 0 -0 -0 -0 -0 -0 0 0 0 -0 -0 -0 -0 0 -0 -0 0 0 -0 -0 -0 0 -0 -0 0 0 -0 -0 nan
nan 0 -0 0 0 0 -0 -0 -0 -0 -0 -0 -1 -0 -0 0 -1 -0 0 -0 -0 -0 -0 -0 -0 -0 0 0 0 -0 -0 -0 -0 0 0 -0 -0 0 0 -0 -0 -0 0 0 -0 0 0 -0 nan
nan -0 -0 0 -0 -0 -0 0 -0 -0 0 -0 -0 -0 -0 0 -0 -1 -0 -0 -0 -0 -0 0 0 -0 -0 -0 0 0 0 0 -0 -0 0 0 -0 0 0 0 -0 -0 0 0 -0 -0 -0 0 nan
nan -0 0 0 -0 0 -0 0 -0 -0 0 -0 -0 -0 0 -0 0 -0 -0 -0 -0 -0 -0 -0 0 0 0 0 0 0 0 0 -0 -0 -0 0 0 -0 0 0 0 -0 -0 0 -0 -0 -0 -0 nan
nan -0 -0 -0 0 0 -0 -0 0 0 -0 -0 -1 -0 0 1 1 0 0 0 -0 -0 -0 -0 -0 -0 0 0 0 0 -0 0 0 -0 0 -0 -0 0 -0 -0 -0 -0 0 0 -0 -0 -0 -0 nan
nan -0 -0 0 -0 0 -0 -0 -0 -0 -0 -1 -1 -1 -1 1 1 1 1 0 0 0 -0 -0 -0 -0 -0 -0 -0 -0 0 -0 0 0 0 0 -0 0 0 -0 0 -0 -0 0 -0 -0 -0 -0 nan
nan -0 -0 -0 -0 -0 -0 0 -0 0 -0 -0 -0 -1 -2 -1 -0 -0 -0 0 0 0 -0 -0 -0 -0 -0 -0 -0 -0 -0 0 -0 0 0 0 -0 -0 0 0 0 0 0 0 -0 -0 -0 -0 nan
nan -0 -0 -0 -0 -0 -0 0 -0 0 0 -0 0 1 0 -0 -1 -1 -1 -2 -1 -1 -0 -0 -0 -0 -0 -0 -0 -0 -0 -0 -0 -0 -0 0 0 -0 0 0 -0 0 0 -0 0 -0 -0 0 nan
nan -0 -0 -0 0 0 -0 -0 0 -0 -0 -0 -0 -0 -0 -0 -0 -0 -0 -0 -1 -0 -0 -0 -0 -0 -0 -0 -0 -0 -0 -0 -0 -0 -0 -0 0 -0 -0 -0 -0 -0 0 0 0 0 0 0 nan
nan -1 -0 0 0 -0 -0 -0 -0 -0 -0 1 -0 -0 -1 -1 -1 -0 -0 0 0 -0 -0 -0 -0 -0 -0 -0 -0 -0 -0 -0 -0 0 -0 -0 -0 0 -0 -0 -0 -0 -0 0 -0 0 -0 -0 nan
nan -0 -0 0 0 -0 -0 -0 -0 -0 0 -0 -0 1 0 -1 -1 -0 -0 -0 -0 -1 -0 -0 -0 -0 -0 0 -0 -0 0 -0 -0 -0 -0 0 -0 -0 -0 -0 0 -0 -0 0 0 0 0 -0 nan
nan 0 0 0 -0 0 -0 -0 0 -0 0 -1 -1 0 0 -1 -1 -0 -0 -1 -1 -1 -1 -0 -0 -0 0 -0 0 0 -0 -0 -0 -0 -0 -0 0 0 0 0 0 -0 -0 -0 0 0 0 -0 nan
nan -0 -0 -0 -0 -0 -0 0 0 0 0 -0 -1 -2 -1 -1 -1 -1 -1 -1 -0 -0 -0 -0 -0 -0 -0 -0 -0 -0 -0 -0 -0 -0 -0 -0 -0 0 0 0 -0 0 0 0 0 0 0 0 nan
nan -0 0 -0 -0 -0 0 0 0 0 0 0 -1 -1 -1 -1 -0 -0 -0 -0 0 0 0 0 -0 -0 -0 -0 -0 -0 -0 -0 -0 -0 -0 -0 -0 -0 -0 -0 -0 0 0 0 0 0 -0 0 nan
nan -0 -0 -0 -0 -0 0 0 -0 0 -0 -0 0 -0 -1 -1 -1 -0 -1 -0 -0 -0 -0 -0 -0 -0 -0 -0 -0 -0 -0 -0 -0 -0 -0 0 -0 0 -0 -0 -0 -0 0 -0 0 -0 -0 0 nan
nan -0 -0 -0 -0 -0 -0 -0 -0 -0 -0 -0 0 -0 -0 -1 -1 -1 -1 -0 -0 -0 -0 -0 0 -0 0 0 0 0 0 -0 -0 0 0 0 0 0 -0 0 0 0 0 -0 -0 0 0 0 nan
nan 0 -0 -0 -0 -0 0 -0 -0 -0 -0 -0 -0 0 -0 -0 -1 -1 -0 -0 -0 -0 -0 0 -0 -0 -0 -0 -0 -0 -0 -0 -0 -0 0 0 -0 0 0 0 -0 -0 -0 0 0 0 0 0 nan
nan -0 -0 -0 0 -0 -0 -0 -0 -1 -1 -1 -1 -0 -0 -0 -1 -0 0 -0 -0 -0 0 -0 -0 -0 -0 -0 -0 0 0 -0 -0 0 0 0 -0 -0 0 0 -0 0 -0 0 0 0 0 0 nan
nan -0 -0 0 -0 -0 -0 -0 0 0 0 0 -1 -1 -0 -1 -1 -0 -0 -0 0 0 0 -0 -0 0 -0 -0 0 0 -0 -0 0 0 0 -0 -0 0 -0 0 -0 0 0 0 0 0 0 0 nan
nan -0 0 0 -0 -0 -0 0 0 -0 -0 -0 -1 -0 -1 -1 -1 -1 -0 0 0 0 0 0 0 0 -0 0 0 -0 -0 -0 -0 0 0 0 0 0 0 0 0 0 0 0 0 0 0 -0 nan
nan -0 -0 -0 -0 -0 -0 -0 -0 -0 -0 -1 -0 -0 -1 -1 -1 0 0 0 -0 0 0 0 0 0 0 0 -0 -0 -0 -0 0 0 0 -0 -0 0 0 0 0 -0 -0 0 0 -0 -0 -0 nan
nan -0 -1 -0 0 0 -0 -0 -0 -0 -0 0 0 -1 -1 -0 0 1 0 0 -0 0 0 0 0 -0 0 0 -0 -0 0 0 0 -0 -0 -0 0 0 0 0 0 -0 -0 -0 0 0 -0 0 nan
nan -1 -0 1 0 -0 -0 0 -1 -1 -0 0 -1 -0 -0 0 0 0 0 -0 -0 0 0 0 -0 0 0 -0 -0 0 0 0 0 0 0 0 0 -0 -0 0 0 -0 -0 0 0 0 -0 0 nan
nan -1 -0 -0 0 0 -0 -0 0 0 -1 -0 -0 0 0 0 1 1 1 0 0 0 0 0 0 -0 -0 -0 0 0 0 0 0 0 0 0 -0 -0 0 0 0 -0 -0 0 0 0 0 0 nan
nan -0 -0 -0 0 0 -0 -1 -0 -0 -0 -0 1 1 1 0 1 1 0 0 0 0 1 0 0 0 0 1 1 0 0 0 -0 0 0 0 -0 -0 0 0 -0 -0 0 0 0 0 0 0 nan
nan -0 -0 -0 0 0 0 -0 -0 0 -0 -0 -0 1 2 0 0 0 -0 -0 0 1 1 0 0 0 1 1 1 -0 -0 -0 1 1 -0 -0 0 0 0 -0 -0 -0 0 0 0 0 0 0 nan
nan 0 -1 -0 0 1 -0 -0 0 -0 -0 0 1 1 1 0 0 -0 -0 -0 1 0 -0 0 1 1 1 1 0 -0 -1 -0 1 0 0 0 0 0 0 -0 -0 0 0 0 0 0 0 0 nan
nan nan nan nan nan nan nan nan nan nan nan nan nan nan nan nan nan nan nan nan nan nan nan nan nan nan nan nan nan nan nan nan nan nan nan nan nan nan nan nan nan nan nan nan nan nan nan nan nan
Wind_Speed
7 5 4 6 3 3 4 1 1 6 4 6 26 5 6 4 3 3 21 32 30 29 26 23 20 17 15 15 14 15 17 16 16 18 15 16 18 15 14 13 17 19 18 19 19 20 20 19 21
5 6 4 2 5 5 3 3 2 3 5 18 11 9 3 2 3 15 39 32 31 29 26 22 19 17 16 16 14 14 14 15 16 15 14 23 22 19 16 15 17 18 18 19 19 19 19 20 22
7 3 1 4 3 3 2 1 3 2 12 10 4 5 3 3 13 37 33 33 30 28 25 21 19 18 17 16 14 14 13 14 15 16 20 24 20 18 14 17 18 18 19 18 20 20 21 22 22
2 2 5 5 4 0 1 3 5 3 5 9 12 6 8 2 31 26 33 33 30 27 24 21 20 18 17 16 14 14 14 14 15 17 19 19 17 15 16 18 19 19 18 21 22 22 23 20 18
6 6 5 2 2 1 2 2 5 6 3 10 5 5 10 25 19 26 31 32 29 26 24 22 20 17 16 14 14 14 14 14 16 16 18 17 16 16 16 18 19 19 19 20 20 19 19 15 16
5 5 4 2 3 2 2 5 3 6 5 12 12 9 6 10 24 27 30 31 25 25 24 22 19 16 14 13 13 16 15 16 16 16 18 17 17 16 16 18 19 18 18 18 19 19 15 16 19
6 3 2 2 4 4 2 2 3 3 10 7 21 4 8 22 24 27 28 27 25 24 24 22 19 17 14 12 14 16 18 15 15 16 18 18 17 16 16 18 18 17 17 17 19 18 15 20 17
2 3 2 3 2 4 8 6 5 7 11 22 21 7 9 29 26 28 29 27 26 25 23 21 20 18 15 12 15 18 18 16 15 16 19 18 18 16 16 17 17 17 16 16 18 18 14 12 12
2 3 4 4 4 2 9 5 7 8 8 17 19 12 30 32 30 32 32 30 30 28 25 22 20 18 15 13 17 19 16 16 15 17 19 17 19 17 15 18 18 16 16 16 18 17 14 12 13
2 1 5 4 2 3 6 7 9 6 17 6 10 17 35 34 33 35 34 33 32 29 26 23 20 18 16 16 18 19 18 18 17 19 20 18 16 16 15 16 16 15 16 16 17 15 13 13 12
5 5 5 6 11 3 5 3 3 15 6 12 26 39 39 37 35 35 32 29 29 26 26 24 21 18 16 16 18 19 17 17 17 18 19 18 15 15 15 15 16 16 16 16 17 15 14 12 10
3 16 9 5 11 6 2 3 3 14 10 19 34 43 43 39 37 35 30 27 26 28 25 24 22 19 17 17 18 18 18 18 17 17 16 15 15 13 14 14 14 14 15 16 15 13 14 13 11
1 3 11 9 10 11 4 4 3 13 10 25 33 40 42 40 38 34 27 24 23 25 26 26 23 22 19 18 19 19 20 18 17 16 14 13 13 12 12 15 15 13 15 16 15 11 10 11 12
7 9 7 4 9 2 3 3 7 11 23 29 32 38 42 40 39 36 33 28 25 24 25 25 23 23 20 18 20 20 17 17 17 15 13 12 12 10 12 14 15 15 15 15 11 8 6 10 12
7 2 4 5 8 4 8 4 4 23 29 33 31 34 35 37 36 39 35 30 27 25 24 23 22 25 19 19 19 20 18 17 15 14 12 11 11 10 8 11 13 13 13 13 10 6 6 8 7
6 5 2 4 13 6 10 8 6 29 31 28 32 31 31 38 40 39 38 32 30 29 28 23 27 24 22 22 20 18 17 16 14 12 12 12 11 10 11 12 13 11 12 12 12 5 7 10 9
7 5 8 1 14 4 5 6 10 30 29 27 31 32 34 34 40 40 41 36 34 31 31 28 29 27 24 22 21 17 15 15 15 15 14 14 12 12 13 13 12 12 11 11 10 8 7 8 9
7 7 6 6 7 6 8 9 11 28 28 29 30 34 36 39 39 38 38 37 36 33 32 31 29 29 25 23 21 20 17 14 15 16 16 15 12 13 14 14 13 13 15 14 13 11 9 9 8
5 6 6 4 3 3 7 6 14 23 22 26 30 33 34 39 41 40 39 38 36 37 34 36 33 28 27 27 25 24 22 17 17 21 18 17 13 12 14 16 17 16 14 14 12 12 12 11 10
6 7 5 5 3 7 3 10 6 20 29 35 36 35 37 39 43 42 39 37 36 37 37 37 35 32 30 27 27 26 23 19 16 18 19 17 16 12 12 16 17 19 18 19 16 14 12 12 14
4 3 1 3 6 4 5 4 4 8 19 24 29 35 33 41 46 42 42 40 36 37 37 38 35 34 31 25 25 26 25 22 19 19 21 19 18 15 12 12 15 16 17 18 18 16 14 12 9
3 2 2 2 4 2 4 5 6 8 12 11 28 33 35 41 44 45 44 43 40 37 34 34 34 34 32 26 26 26 25 32 28 23 19 19 20 18 15 13 15 18 17 17 16 16 16 17 15
8 2 3 3 4 2 5 3 7 5 8 14 23 34 39 43 43 45 45 45 42 39 35 34 33 33 31 28 29 19 24 27 30 27 22 21 21 20 18 16 15 20 21 19 18 18 20 19 18
3 2 6 5 3 4 4 4 7 4 6 5 12 29 40 44 41 37 38 41 43 40 38 34 37 33 32 30 28 20 20 21 22 28 27 24 21 20 20 19 18 18 22 22 21 20 21 20 18
6 7 4 6 5 4 1 2 10 12 8 12 12 28 35 33 37 35 36 41 43 44 41 36 38 35 34 32 27 23 23 22 21 24 25 23 24 25 22 21 20 19 20 22 22 23 23 21 21
3 6 5 2 1 6 3 4 7 7 12 7 11 13 22 30 34 35 34 38 41 42 40 39 39 37 33 34 29 22 24 24 23 23 25 24 25 23 20 22 22 20 19 20 22 24 24 23 23
1 1 3 6 3 3 4 8 7 9 11 16 15 15 16 20 23 23 28 35 37 40 42 39 37 39 35 32 28 24 21 26 26 24 24 26 24 21 22 21 20 21 23 22 21 21 22 23 22
3 6 3 4 1 2 6 5 4 11 11 11 11 19 16 16 20 22 26 32 33 37 39 40 40 43 36 33 29 29 23 24 26 29 28 27 25 25 23 24 20 20 18 19 22 25 26 22 23
6 5 5 5 4 5 0 7 5 4 3 2 9 17 17 18 21 23 23 27 30 28 30 33 39 39 33 33 19 31 38 18 23 30 31 30 28 27 27 25 22 23 21 21 23 23 24 22 21
4 4 4 5 5 1 3 5 9 7 5 9 15 17 16 17 21 24 22 24 22 25 27 27 32 32 24 25 28 34 34 26 23 25 31 32 32 30 31 30 28 27 25 23 21 18 18 19 20
Wind_Direction
99 102 110 115 82 98 108 41 348 176 168 160 169 164 181 34 178 204 149 159 163 158 158 155 153 154 155 149 141 139 135 132 131 131 124 143 149 140 127 109 114 116 115 113 111 115 116 113 110
136 137 98 99 63 42 3 24 129 267 135 138 156 107 92 75 132 146 151 159 162 157 158 157 157 157 158 150 147 144 140 139 137 134 114 128 140 140 131 116 117 118 118 116 121 120 119 118 115
110 116 53 75 77 63 320 27 271 144 130 113 113 77 88 117 146 144 152 160 161 159 158 160 158 158 156 154 151 146 141 140 138 136 132 130 130 132 136 131 123 123 122 123 121 119 124 123 119
252 75 51 72 88 61 185 279 153 228 152 168 132 79 85 38 138 151 155 163 163 161 161 163 161 159 158 156 154 153 148 146 145 144 148 142 137 136 136 135 129 126 124 125 126 122 123 124 122
19 56 54 65 345 133 118 268 291 305 71 138 115 109 100 144 145 156 160 166 168 164 165 164 163 163 161 158 157 152 145 149 147 143 148 148 145 138 137 134 133 130 132 134 131 131 129 126 131
46 39 44 55 325 97 149 315 227 195 158 101 109 102 110 187 156 158 161 167 172 167 167 166 166 166 163 161 163 157 156 149 147 146 148 146 145 141 140 136 134 134 134 138 136 135 130 127 126
104 81 205 256 217 165 198 94 94 165 137 127 137 80 134 163 160 155 163 168 173 172 171 169 169 167 162 160 162 162 155 156 149 153 150 149 146 142 140 138 137 141 139 143 143 136 124 136 134
12 91 257 253 285 130 163 138 137 141 141 138 153 150 164 167 164 161 164 171 175 175 175 173 171 168 162 165 163 162 154 152 148 154 154 154 148 143 141 136 138 142 144 148 149 147 138 131 143
326 41 292 232 152 231 144 138 168 177 149 166 176 172 165 164 166 165 168 173 177 178 178 178 175 171 164 160 158 159 157 159 156 153 155 156 152 152 150 147 148 139 142 152 154 151 149 143 134
228 156 237 240 105 41 172 158 157 158 161 171 165 163 161 169 168 171 172 176 182 182 181 180 178 174 166 160 160 161 161 160 163 158 157 156 158 158 156 155 151 141 145 154 157 161 159 152 144
216 224 214 250 252 314 194 178 115 137 186 193 156 154 170 175 173 175 177 184 185 184 183 181 180 177 171 163 160 164 162 160 159 159 159 164 165 163 165 162 163 152 150 148 160 168 171 166 155
226 242 208 241 207 170 212 167 171 167 209 205 175 171 175 181 182 185 186 189 191 194 187 182 180 179 173 169 166 164 163 162 156 156 158 160 164 166 172 168 169 163 158 159 156 166 179 182 186
249 249 215 266 217 208 268 214 210 203 189 161 167 174 182 187 190 192 193 189 192 193 191 186 183 177 172 174 172 169 163 161 159 161 158 157 157 168 166 167 170 170 164 158 166 167 179 197 200
229 212 179 200 208 205 199 234 181 196 169 161 170 174 185 192 198 193 197 192 190 181 190 183 185 178 173 171 175 172 172 171 170 168 172 159 157 148 170 176 179 182 174 176 177 185 233 223 220
249 91 32 186 168 247 208 277 213 158 173 172 170 181 188 197 200 197 196 197 193 185 182 183 178 180 177 170 171 176 172 170 174 178 180 181 178 179 175 180 185 190 183 188 205 220 199 187 187
32 73 90 229 165 253 170 268 166 169 168 179 188 187 192 200 202 203 204 202 200 193 189 182 179 178 176 174 176 179 187 189 183 180 186 191 201 204 200 185 191 188 197 202 214 211 204 211 237
7 324 318 176 180 125 152 266 177 179 174 184 193 201 203 198 209 210 210 210 206 203 197 193 184 183 177 175 182 184 196 205 205 203 202 197 211 218 215 211 200 211 212 217 219 222 220 222 240
315 322 322 293 169 176 180 261 180 185 184 190 196 204 209 210 208 211 214 217 213 210 207 203 196 188 186 183 184 192 203 223 224 221 216 216 219 230 225 225 225 224 226 226 218 226 233 234 248
254 271 283 255 217 142 220 235 198 194 198 199 203 207 209 213 213 216 219 221 218 213 209 205 203 197 193 192 192 197 205 217 231 226 225 223 223 239 237 234 240 232 223 228 223 231 239 243 256
215 251 286 314 198 170 170 241 227 189 205 205 201 206 210 212 217 217 220 219 219 216 211 206 206 203 201 203 202 209 209 218 220 214 215 220 222 234 243 244 244 240 240 233 232 235 250 257 259
297 225 163 229 327 46 3 338 136 217 220 217 218 214 213 211 214 214 217 216 212 211 210 207 207 206 207 210 209 211 213 221 216 209 213 218 225 232 247 261 246 242 243 239 237 242 250 258 267
282 289 216 256 64 278 61 276 234 232 229 210 216 209 212 218 217 215 211 215 213 216 215 212 211 207 211 210 212 219 224 223 226 225 220 223 232 237 245 257 248 246 247 247 246 244 252 251 241
231 346 5 36 110 59 353 55 268 164 230 231 225 212 211 220 219 218 213 215 218 219 218 217 214 212 215 212 217 230 218 223 236 237 230 233 239 243 244 249 253 246 249 246 245 247 249 256 261
12 349 38 51 62 37 257 113 284 265 225 261 225 221 207 215 222 218 215 212 218 219 218 218 213 215 218 218 228 243 237 235 230 231 235 236 240 243 244 245 250 251 247 249 249 252 253 256 264
80 50 350 6 14 224 32 65 240 283 281 240 237 207 206 204 215 213 206 208 213 213 218 216 216 216 220 220 228 241 238 239 236 229 229 232 242 245 245 247 247 250 248 248 250 252 259 263 267
67 135 144 246 264 273 305 258 277 309 337 350 241 210 189 200 213 215 205 209 211 211 212 215 219 218 223 226 228 236 236 237 239 234 234 238 242 245 248 253 254 254 254 252 253 255 259 265 269
186 41 185 107 18 36 283 301 325 336 4 34 82 131 175 194 202 196 195 206 213 213 214 217 219 219 226 229 234 241 242 237 239 238 236 240 244 244 245 251 251 247 253 257 257 259 260 264 271
109 165 19 15 136 315 301 294 264 334 346 349 50 86 124 176 184 189 197 204 214 215 215 219 227 226 225 226 234 246 254 244 245 245 242 240 241 243 245 249 248 249 249 254 260 262 261 263 270
13 13 51 121 117 161 235 288 214 287 26 13 52 88 111 138 160 181 194 204 210 212 220 224 229 227 225 232 217 240 243 254 248 248 246 244 244 243 246 248 250 250 255 261 262 263 270 257 267
110 167 112 107 281 116 157 286 342 120 120 108 103 119 146 157 164 175 189 198 202 223 228 224 231 232 222 236 239 241 241 253 255 255 247 247 248 248 249 251 254 257 256 258 267 261 268 259 265
Height
1503 1505 1506 1508 1515 1517 1525 1521 1512 1513 1513 1513 1516 1518 1520 1521 1523 1535 1524 1530 1537 1542 1546 1548 1551 1553 1555 1555 1556 1557 1557 1557 1558 1558 1558 1558 1561 1563 1563 1564 1566 1567 1568 1568 1569 1570 1571 1572 1573
1505 1505 1505 1505 1523 1533 1532 1517 1520 1516 1512 1514 1519 1518 1520 1523 1522 1522 1526 1534 1539 1543 1547 1550 1553 1554 1556 1556 1557 1558 1559 1560 1561 1561 1560 1559 1563 1564 1564 1567 1568 1569 1569 1570 1571 1572 1574 1576 1577
1505 1505 1505 1510 1525 1536 1534 1522 1519 1515 1513 1514 1517 1519 1520 1522 1522 1525 1530 1535 1541 1544 1548 1551 1554 1556 1557 1558 1560 1560 1561 1562 1563 1563 1563 1564 1566 1567 1567 1567 1569 1570 1571 1573 1573 1575 1576 1578 1580
1507 1509 1508 1521 1528 1525 1521 1516 1518 1519 1516 1517 1518 1521 1523 1524 1526 1529 1533 1538 1542 1546 1550 1553 1556 1558 1559 1560 1561 1562 1563 1564 1564 1565 1565 1565 1568 1569 1569 1569 1570 1573 1574 1575 1577 1578 1580 1582 1582
1509 1509 1521 1525 1519 1515 1514 1514 1517 1516 1516 1518 1519 1523 1526 1529 1531 1533 1536 1541 1545 1547 1551 1554 1557 1559 1560 1562 1563 1563 1564 1565 1566 1567 1567 1568 1569 1570 1571 1571 1573 1574 1576 1578 1579 1581 1582 1584 1584
1512 1515 1531 1533 1523 1515 1515 1514 1514 1515 1518 1519 1522 1523 1530 1531 1532 1535 1538 1544 1548 1550 1552 1556 1558 1560 1562 1563 1564 1564 1565 1567 1568 1568 1569 1570 1571 1573 1573 1574 1575 1577 1579 1580 1582 1583 1584 1586 1587
1513 1520 1528 1525 1522 1519 1514 1513 1513 1515 1518 1521 1523 1527 1532 1533 1537 1537 1542 1546 1550 1553 1555 1557 1560 1562 1563 1564 1564 1565 1566 1568 1569 1570 1571 1572 1574 1575 1576 1577 1578 1580 1581 1582 1584 1585 1586 1587 1588
1517 1517 1522 1519 1522 1516 1510 1513 1513 1515 1519 1522 1523 1528 1533 1534 1538 1540 1544 1548 1551 1554 1556 1558 1561 1563 1564 1565 1566 1567 1569 1570 1572 1573 1574 1575 1576 1577 1578 1579 1581 1582 1583 1584 1586 1588 1588 1589 1590
1519 1526 1528 1517 1517 1512 1511 1511 1514 1515 1518 1520 1523 1524 1529 1533 1537 1541 1544 1549 1552 1554 1556 1559 1561 1563 1565 1566 1567 1569 1570 1572 1574 1575 1576 1577 1578 1580 1581 1581 1584 1584 1585 1586 1588 1590 1590 1591 1593
1521 1528 1517 1506 1506 1512 1511 1509 1512 1515 1517 1520 1524 1525 1530 1534 1537 1540 1543 1547 1550 1553 1555 1559 1562 1564 1565 1567 1568 1570 1571 1573 1575 1577 1578 1580 1581 1582 1583 1583 1585 1586 1587 1588 1589 1590 1591 1592 1594
1516 1519 1504 1504 1504 1509 1509 1510 1511 1512 1518 1515 1520 1524 1530 1533 1539 1541 1544 1544 1546 1552 1556 1559 1562 1564 1566 1567 1569 1571 1572 1574 1576 1578 1580 1581 1583 1583 1584 1585 1586 1588 1589 1589 1591 1591 1592 1594 1595
1516 1505 1506 1505 1505 1507 1511 1510 1511 1513 1511 1513 1517 1522 1528 1533 1538 1541 1545 1547 1549 1552 1556 1559 1562 1564 1567 1568 1570 1571 1572 1575 1577 1579 1581 1582 1583 1584 1585 1587 1589 1590 1591 1591 1592 1593 1594 1596 1597
1512 1507 1506 1508 1507 1509 1511 1510 1511 1514 1514 1517 1521 1526 1529 1533 1537 1542 1545 1548 1551 1553 1556 1559 1562 1565 1567 1569 1571 1572 1573 1575 1578 1580 1582 1582 1584 1585 1586 1587 1590 1592 1593 1593 1594 1595 1596 1597 1598
1506 1505 1509 1512 1511 1512 1514 1513 1513 1514 1517 1521 1522 1526 1530 1532 1535 1541 1545 1547 1550 1553 1556 1560 1563 1566 1568 1569 1571 1573 1574 1576 1578 1580 1582 1583 1585 1586 1587 1588 1590 1591 1593 1595 1596 1597 1597 1598 1599
1506 1508 1510 1509 1512 1514 1515 1514 1511 1510 1516 1520 1523 1527 1531 1533 1536 1538 1541 1545 1549 1552 1556 1560 1563 1567 1569 1571 1573 1574 1576 1577 1579 1581 1582 1584 1585 1587 1588 1589 1590 1592 1594 1595 1596 1597 1596 1598 1598
1507 1512 1524 1502 1509 1510 1515 1523 1507 1510 1514 1519 1523 1526 1529 1531 1533 1537 1540 1544 1548 1552 1555 1560 1563 1566 1569 1571 1574 1575 1577 1578 1580 1581 1582 1584 1586 1587 1589 1590 1591 1592 1594 1595 1596 1596 1597 1598 1598
1522 1532 1521 1508 1507 1509 1515 1516 1508 1510 1512 1516 1520 1523 1525 1528 1530 1533 1536 1541 1545 1549 1553 1557 1560 1564 1567 1570 1573 1576 1578 1579 1580 1581 1582 1584 1586 1587 1588 1589 1591 1592 1593 1594 1595 1596 1597 1598 1598
1536 1532 1520 1511 1506 1508 1517 1512 1508 1507 1510 1512 1516 1518 1521 1524 1527 1530 1533 1536 1542 1546 1551 1556 1558 1561 1566 1569 1572 1575 1577 1578 1580 1581 1582 1583 1585 1586 1587 1588 1590 1591 1591 1593 1594 1595 1597 1597 1597
1523 1525 1526 1508 1500 1504 1507 1507 1506 1507 1511 1511 1512 1514 1517 1520 1523 1526 1528 1533 1537 1542 1547 1552 1556 1560 1564 1567 1570 1572 1574 1577 1578 1580 1581 1583 1584 1585 1586 1587 1588 1589 1590 1592 1594 1594 1595 1596 1596
1522 1524 1521 1507 1500 1506 1509 1508 1499 1503 1499 1501 1501 1507 1510 1515 1516 1523 1527 1531 1533 1537 1542 1547 1552 1557 1561 1565 1567 1570 1572 1575 1577 1579 1581 1582 1584 1585 1585 1586 1586 1587 1588 1590 1591 1592 1593 1594 1594
1517 1517 1514 1515 1505 1502 1505 1513 1502 1498 1500 1502 1503 1503 1507 1506 1510 1517 1523 1525 1529 1532 1537 1542 1547 1553 1558 1562 1566 1569 1571 1573 1575 1576 1579 1581 1583 1584 1585 1585 1585 1585 1587 1587 1588 1590 1592 1592 1592
1523 1506 1506 1508 1519 1535 1511 1548 1513 1502 1493 1494 1492 1495 1498 1500 1505 1511 1517 1521 1527 1531 1537 1540 1545 1550 1555 1560 1563 1565 1566 1568 1571 1574 1577 1579 1582 1583 1584 1584 1583 1584 1585 1585 1586 1588 1589 1589 1590
1518 1504 1508 1509 1522 1522 1526 1539 1511 1498 1501 1487 1481 1483 1489 1493 1497 1502 1510 1520 1525 1530 1534 1541 1543 1548 1552 1556 1560 1562 1564 1567 1569 1572 1574 1577 1579 1580 1582 1582 1583 1582 1583 1584 1584 1585 1586 1587 1587
1505 1507 1516 1526 1533 1552 1531 1535 1524 1504 1484 1478 1473 1478 1479 1485 1493 1501 1509 1516 1522 1528 1531 1538 1540 1544 1547 1551 1555 1557 1562 1564 1566 1568 1570 1573 1576 1577 1579 1580 1580 1580 1581 1581 1582 1582 1583 1584 1584
1510 1531 1562 1559 1566 1559 1535 1537 1518 1484 1478 1473 1467 1467 1474 1484 1490 1496 1503 1507 1514 1520 1527 1532 1536 1538 1542 1545 1548 1552 1556 1561 1562 1564 1567 1569 1572 1573 1574 1576 1577 1577 1577 1579 1579 1579 1579 1580 1580
1515 1527 1561 1561 1573 1559 1533 1534 1510 1484 1475 1465 1465 1472 1479 1482 1487 1492 1500 1504 1510 1516 1518 1524 1528 1531 1534 1538 1541 1545 1550 1554 1557 1560 1563 1565 1568 1570 1572 1573 1574 1574 1575 1575 1575 1575 1575 1575 1575
1516 1530 1525 1553 1560 1565 1545 1521 1497 1484 1477 1470 1470 1475 1481 1485 1490 1496 1500 1504 1508 1511 1514 1519 1521 1523 1528 1537 1544 1546 1546 1549 1551 1555 1558 1560 1563 1567 1569 1569 1571 1571 1570 1572 1573 1572 1571 1572 1572
1508 1515 1536 1551 1556 1555 1553 1545 1529 1505 1498 1487 1481 1482 1483 1486 1491 1495 1499 1502 1505 1508 1511 1515 1518 1522 1531 1537 1542 1545 1547 1546 1547 1551 1554 1556 1558 1562 1563 1566 1567 1568 1567 1569 1569 1569 1568 1570 1569
1524 1531 1534 1545 1555 1566 1570 1545 1512 1506 1499 1495 1489 1487 1488 1489 1492 1496 1499 1502 1505 1509 1510 1512 1513 1518 1530 1531 1533 1535 1543 1542 1541 1544 1549 1552 1555 1557 1559 1560 1562 1563 1563 1565 1565 1566 1564 1567 1566
1516 1524 1532 1553 1550 1560 1560 1547 1509 1502 1501 1495 1492 1492 1492 1494 1495 1497 1499 1503 1508 1507 1505 1510 1513 1515 1522 1527 1530 1531 1537 1536 1537 1539 1542 1546 1549 1552 1554 1556 1557 1557 1558 1560 1561 1561 1561 1562 1562